,,Stat6,,Stat2,,Stat8,,Stat9,,Stat10,,Wind1,,Wind1,
time,status,PA1M_AVG,status,PR1M_SUM,status,RH1M_AVG,status,SR1M_AVG,status,TA1M_AVG,status,W1dAve1m,status,W1sAve1m,
2007-11-07, 00:00:00,VALID,917.184,VALID,0,VALID,100,VALID,-0.101885,VALID,19.0824,VALID,29,VALID,0.495908,
2007-11-07, 00:01:00,VALID,917.189,VALID,0,VALID,100,VALID,-0.101885,VALID,19.1248,VALID,28,VALID,0.237645,
2007-11-07, 00:02:00,VALID,917.188,VALID,0,VALID,100,VALID,-0.0849042,VALID,19.1378,VALID,28,VALID,0.296494,
2007-11-07, 00:03:00,VALID,917.201,VALID,0,VALID,100,VALID,-0.101885,VALID,19.1543,VALID,28,VALID,0.104048,
2007-11-07, 00:04:00,VALID,917.191,VALID,0,VALID,100,VALID,-0.118866,VALID,19.1737,VALID,28,VALID,0.133507,
2007-11-07, 00:05:00,VALID,917.196,VALID,0,VALID,100,VALID,-0.118866,VALID,19.1702,VALID,34,VALID,0.204215,
2007-11-07, 00:06:00,VALID,917.212,VALID,0,VALID,100,VALID,-0.0849042,VALID,19.1637,VALID,34,VALID,0.633614,
2007-11-07, 00:07:00,VALID,917.199,VALID,0,VALID,100,VALID,-0.118866,VALID,19.1403,VALID,57,VALID,0.685724,
2007-11-07, 00:08:00,VALID,917.218,VALID,0,VALID,100,VALID,-0.101885,VALID,19.1568,VALID,59,VALID,0.689499,
2007-11-07, 00:09:00,VALID,917.218,VALID,0,VALID,100,VALID,-0.0679233,VALID,19.1533,VALID,37,VALID,0.615854,
2007-11-07, 00:10:00,VALID,917.227,VALID,0,VALID,100,VALID,-0.101885,VALID,19.1403,VALID,34,VALID,0.805469,
2007-11-07, 00:11:00,VALID,917.234,VALID,0,VALID,100,VALID,-0.0849042,VALID,19.1832,VALID,64,VALID,0.44798,
2007-11-07, 00:12:00,VALID,917.252,VALID,0,VALID,100,VALID,-0.0849042,VALID,19.202,VALID,115,VALID,0.121289,
2007-11-07, 00:13:00,VALID,917.245,VALID,0,VALID,100,VALID,-0.101885,VALID,19.2209,VALID,73,VALID,0.145349,
2007-11-07, 00:14:00,VALID,917.242,VALID,0,VALID,100,VALID,-0.0849042,VALID,19.2182,VALID,326,VALID,0.326215,
2007-11-07, 00:15:00,VALID,917.224,VALID,0,VALID,100,VALID,-0.0679233,VALID,19.2311,VALID,335,VALID,0.126116,
2007-11-07, 00:16:00,VALID,917.223,VALID,0,VALID,100,VALID,-0.0679233,VALID,19.2444,VALID,335,VALID,0,
2007-11-07, 00:17:00,VALID,917.197,VALID,0,VALID,99.988,VALID,-0.101885,VALID,19.2546,VALID,335,VALID,0.064098,
2007-11-07, 00:18:00,VALID,917.187,VALID,0,VALID,100,VALID,-0.135847,VALID,19.274,VALID,335,VALID,0.0665838,
2007-11-07, 00:19:00,VALID,917.184,VALID,0,VALID,100,VALID,-0.101885,VALID,19.2968,VALID,335,VALID,0,
2007-11-07, 00:20:00,VALID,917.151,VALID,0,VALID,100,VALID,-0.0849042,VALID,19.3065,VALID,335,VALID,0.0264863,
2007-11-07, 00:21:00,VALID,917.138,VALID,0,VALID,100,VALID,-0.0679233,VALID,19.2995,VALID,340,VALID,0.132241,
2007-11-07, 00:22:00,VALID,917.125,VALID,0,VALID,100,VALID,-0.0849042,VALID,19.3053,VALID,350,VALID,0.293241,
2007-11-07, 00:23:00,VALID,917.118,VALID,0,VALID,100,VALID,-0.0679233,VALID,19.2995,VALID,60,VALID,0.785857,
2007-11-07, 00:24:00,VALID,917.095,VALID,0,VALID,100,VALID,-0.0679233,VALID,19.29,VALID,70,VALID,0.56064,
2007-11-07, 00:25:00,VALID,917.092,VALID,0,VALID,100,VALID,-0.101885,VALID,19.28,VALID,73,VALID,1.02668,
2007-11-07, 00:26:00,VALID,917.091,VALID,0,VALID,100,VALID,-0.0849042,VALID,19.2474,VALID,83,VALID,0.635789,
2007-11-07, 00:27:00,VALID,917.075,VALID,0,VALID,100,VALID,-0.0339617,VALID,19.2339,VALID,81,VALID,0.228906,
2007-11-07, 00:28:00,VALID,917.066,VALID,0,VALID,100,VALID,-0.0509425,VALID,19.2543,VALID,71,VALID,0.805043,
2007-11-07, 00:29:00,VALID,917.031,VALID,0,VALID,100,VALID,-0.0849042,VALID,19.2277,VALID,81,VALID,1.37109,
2007-11-07, 00:30:00,VALID,917.018,VALID,0,VALID,100,VALID,-0.0509425,VALID,19.1917,VALID,36,VALID,0.865625,
2007-11-07, 00:31:00,VALID,916.989,VALID,0,VALID,100,VALID,-0.0849042,VALID,19.1925,VALID,63,VALID,1.00709,
2007-11-07, 00:32:00,VALID,916.957,VALID,0,VALID,100,VALID,-0.0849042,VALID,19.1929,VALID,67,VALID,1.29942,
2007-11-07, 00:33:00,VALID,916.937,VALID,0,VALID,100,VALID,-0.0509425,VALID,19.1688,VALID,81,VALID,1.03634,
2007-11-07, 00:34:00,VALID,916.907,VALID,0,VALID,100,VALID,-0.0509425,VALID,19.1693,VALID,75,VALID,0.994284,
2007-11-07, 00:35:00,VALID,916.872,VALID,0,VALID,100,VALID,-0.0849042,VALID,19.1436,VALID,82,VALID,0.633358,
2007-11-07, 00:36:00,VALID,916.848,VALID,0,VALID,100,VALID,-0.0679233,VALID,19.1568,VALID,67,VALID,1.03906,
2007-11-07, 00:37:00,VALID,916.843,VALID,0,VALID,100,VALID,-0.0339617,VALID,19.1303,VALID,74,VALID,1.00182,
2007-11-07, 00:38:00,VALID,916.815,VALID,0,VALID,100,VALID,-0.0509425,VALID,19.1174,VALID,43,VALID,0.242932,
2007-11-07, 00:39:00,VALID,916.817,VALID,0,VALID,100,VALID,-0.0679233,VALID,19.1042,VALID,66,VALID,1.29745,
2007-11-07, 00:40:00,VALID,916.788,VALID,0,VALID,100,VALID,-0.0679233,VALID,19.0817,VALID,62,VALID,1.36523,
2007-11-07, 00:41:00,VALID,916.787,VALID,0,VALID,100,VALID,-0.0679233,VALID,19.0557,VALID,69,VALID,1.07031,
2007-11-07, 00:42:00,VALID,916.793,VALID,0,VALID,100,VALID,-0.0509425,VALID,19.0458,VALID,69,VALID,0.863104,
2007-11-07, 00:43:00,VALID,916.809,VALID,0,VALID,100,VALID,-0.0339617,VALID,19.049,VALID,74,VALID,1.11033,
2007-11-07, 00:44:00,VALID,916.793,VALID,0,VALID,100,VALID,0,VALID,19.062,VALID,75,VALID,1.23108,
2007-11-07, 00:45:00,VALID,916.778,VALID,0,VALID,100,VALID,-0.0679233,VALID,19.0458,VALID,56,VALID,1.06605,
2007-11-07, 00:46:00,VALID,916.777,VALID,0,VALID,100,VALID,-0.0849042,VALID,19.0263,VALID,65,VALID,1.1419,
2007-11-07, 00:47:00,VALID,916.768,VALID,0,VALID,100,VALID,-0.0169808,VALID,19.0293,VALID,17,VALID,0.71189,
2007-11-07, 00:48:00,VALID,916.745,VALID,0,VALID,100,VALID,-0.0509425,VALID,19.0166,VALID,61,VALID,1.45494,
2007-11-07, 00:49:00,VALID,916.726,VALID,0,VALID,100,VALID,-0.0339617,VALID,19.0198,VALID,43,VALID,0.101744,
2007-11-07, 00:50:00,VALID,916.691,VALID,0,VALID,100,VALID,-0.0339617,VALID,19.0133,VALID,43,VALID,0.00563227,
2007-11-07, 00:51:00,VALID,916.654,VALID,0,VALID,100,VALID,-0.0679233,VALID,19.0233,VALID,50,VALID,0.163318,
2007-11-07, 00:52:00,VALID,916.64,VALID,0,VALID,100,VALID,-0.0679233,VALID,19.0328,VALID,70,VALID,1.22066,
2007-11-07, 00:53:00,VALID,916.608,VALID,0,VALID,100,VALID,-0.0509425,VALID,19.0453,VALID,70,VALID,1.12779,
2007-11-07, 00:54:00,VALID,916.588,VALID,0,VALID,100,VALID,-0.0509425,VALID,19.0393,VALID,72,VALID,0.707304,
2007-11-07, 00:55:00,VALID,916.575,VALID,0,VALID,100,VALID,-0.0169808,VALID,19.0523,VALID,69,VALID,0.773251,
2007-11-07, 00:56:00,VALID,916.585,VALID,0,VALID,100,VALID,-0.0169808,VALID,19.046,VALID,83,VALID,0.946987,
2007-11-07, 00:57:00,VALID,916.585,VALID,0,VALID,100,VALID,-0.0679233,VALID,19.0555,VALID,73,VALID,1.2081,
2007-11-07, 00:58:00,VALID,916.58,VALID,0,VALID,100,VALID,-0.0679233,VALID,19.0523,VALID,65,VALID,0.903201,
2007-11-07, 00:59:00,VALID,916.577,VALID,0,VALID,100,VALID,-0.0509425,VALID,19.0685,VALID,79,VALID,1.08073,
2007-11-07, 01:00:00,VALID,916.561,VALID,0,VALID,100,VALID,-0.0679233,VALID,19.0523,VALID,88,VALID,0.780729,
2007-11-07, 01:01:00,VALID,916.56,VALID,0,VALID,100,VALID,-0.0849042,VALID,19.0657,VALID,57,VALID,0.613653,
2007-11-07, 01:02:00,VALID,916.542,VALID,0,VALID,100,VALID,-0.0169808,VALID,19.0717,VALID,92,VALID,0.133575,
2007-11-07, 01:03:00,VALID,916.512,VALID,0,VALID,100,VALID,-0.0509425,VALID,19.075,VALID,45,VALID,0.296342,
2007-11-07, 01:04:00,VALID,916.483,VALID,0,VALID,100,VALID,-0.0509425,VALID,19.0847,VALID,48,VALID,0.783975,
2007-11-07, 01:05:00,VALID,916.462,VALID,0,VALID,100,VALID,-0.0679233,VALID,19.0685,VALID,70,VALID,1.14348,
2007-11-07, 01:06:00,VALID,916.438,VALID,0,VALID,100,VALID,-0.0679233,VALID,19.0492,VALID,83,VALID,0.919829,
2007-11-07, 01:07:00,VALID,916.435,VALID,0,VALID,100,VALID,-0.101885,VALID,19.0298,VALID,70,VALID,0.771484,
2007-11-07, 01:08:00,VALID,916.413,VALID,0,VALID,100,VALID,-0.0339617,VALID,19.0198,VALID,69,VALID,1.02162,
2007-11-07, 01:09:00,VALID,916.399,VALID,0,VALID,100,VALID,-0.0849042,VALID,19.0263,VALID,60,VALID,1.49909,
2007-11-07, 01:10:00,VALID,916.39,VALID,0,VALID,100,VALID,-0.0169808,VALID,18.9969,VALID,46,VALID,1.56019,
2007-11-07, 01:11:00,VALID,916.371,VALID,0,VALID,100,VALID,-0.0679233,VALID,18.9841,VALID,73,VALID,1.09411,
2007-11-07, 01:12:00,VALID,916.338,VALID,0,VALID,100,VALID,-0.0339617,VALID,18.9906,VALID,64,VALID,0.903409,
2007-11-07, 01:13:00,VALID,916.318,VALID,0,VALID,100,VALID,-0.0679233,VALID,18.9809,VALID,55,VALID,0.799023,
2007-11-07, 01:14:00,VALID,916.277,VALID,0,VALID,100,VALID,-0.0849042,VALID,18.9779,VALID,59,VALID,0.412016,
2007-11-07, 01:15:00,VALID,916.249,VALID,0,VALID,100,VALID,-0.0679233,VALID,18.9941,VALID,60,VALID,0.214744,
2007-11-07, 01:16:00,VALID,916.235,VALID,0,VALID,100,VALID,-0.0169808,VALID,19.0038,VALID,61,VALID,0.346946,
2007-11-07, 01:17:00,VALID,916.2,VALID,0,VALID,100,VALID,-0.0679233,VALID,19.0038,VALID,71,VALID,0.861328,
2007-11-07, 01:18:00,VALID,916.192,VALID,0,VALID,100,VALID,-0.0339617,VALID,18.9874,VALID,64,VALID,0.880526,
2007-11-07, 01:19:00,VALID,916.181,VALID,0,VALID,100,VALID,0,VALID,19.0066,VALID,60,VALID,0.598895,
2007-11-07, 01:20:00,VALID,916.169,VALID,0,VALID,100,VALID,-0.0339617,VALID,19.033,VALID,68,VALID,0.69308,
2007-11-07, 01:21:00,VALID,916.147,VALID,0,VALID,100,VALID,-0.0679233,VALID,19.0263,VALID,77,VALID,1.09411,
2007-11-07, 01:22:00,VALID,916.138,VALID,0,VALID,100,VALID,-0.0849042,VALID,19.0335,VALID,61,VALID,0.646439,
2007-11-07, 01:23:00,VALID,916.118,VALID,0,VALID,100,VALID,-0.101885,VALID,19.0235,VALID,61,VALID,0.411086,
2007-11-07, 01:24:00,VALID,916.1,VALID,0,VALID,100,VALID,-0.0849042,VALID,19.033,VALID,59,VALID,0.30971,
2007-11-07, 01:25:00,VALID,916.076,VALID,0,VALID,100,VALID,-0.0679233,VALID,19.0168,VALID,62,VALID,0.203819,
2007-11-07, 01:26:00,VALID,916.067,VALID,0,VALID,100,VALID,-0.0679233,VALID,18.9941,VALID,67,VALID,0.920455,
2007-11-07, 01:27:00,VALID,916.056,VALID,0,VALID,100,VALID,-0.101885,VALID,18.9943,VALID,62,VALID,1.17656,
2007-11-07, 01:28:00,VALID,916.036,VALID,0,VALID,100,VALID,-0.0339617,VALID,18.9876,VALID,45,VALID,0.715278,
2007-11-07, 01:29:00,VALID,916.011,VALID,0,VALID,100,VALID,-0.0679233,VALID,18.9746,VALID,66,VALID,1.20078,
2007-11-07, 01:30:00,VALID,915.998,VALID,0,VALID,100,VALID,-0.0169808,VALID,18.9712,VALID,29,VALID,1.18537,
2007-11-07, 01:31:00,VALID,915.995,VALID,0,VALID,100,VALID,-0.101885,VALID,18.9357,VALID,43,VALID,0.566229,
2007-11-07, 01:32:00,VALID,915.956,VALID,0,VALID,100,VALID,-0.0849042,VALID,18.9487,VALID,54,VALID,0.458705,
2007-11-07, 01:33:00,VALID,915.936,VALID,0,VALID,100,VALID,-0.0679233,VALID,18.9779,VALID,53,VALID,0.310192,
2007-11-07, 01:34:00,VALID,915.913,VALID,0,VALID,100,VALID,-0.0849042,VALID,18.9906,VALID,64,VALID,0.676417,
2007-11-07, 01:35:00,VALID,915.89,VALID,0,VALID,100,VALID,-0.0849042,VALID,18.9811,VALID,61,VALID,0.556593,
2007-11-07, 01:36:00,VALID,915.87,VALID,0,VALID,100,VALID,-0.0849042,VALID,18.9911,VALID,61,VALID,0.732167,
2007-11-07, 01:37:00,VALID,915.859,VALID,0,VALID,100,VALID,-0.0679233,VALID,18.9779,VALID,66,VALID,0.646129,
2007-11-07, 01:38:00,VALID,915.835,VALID,0,VALID,100,VALID,-0.0849042,VALID,18.9844,VALID,77,VALID,0.60245,
2007-11-07, 01:39:00,VALID,915.826,VALID,0,VALID,100,VALID,-0.101885,VALID,19.0041,VALID,69,VALID,0.864769,
2007-11-07, 01:40:00,VALID,915.832,VALID,0,VALID,100,VALID,-0.101885,VALID,19.0043,VALID,70,VALID,0.665365,
2007-11-07, 01:41:00,VALID,915.84,VALID,0,VALID,100,VALID,-0.0849042,VALID,19.0006,VALID,73,VALID,0.434832,
2007-11-07, 01:42:00,VALID,915.852,VALID,0,VALID,100,VALID,-0.0849042,VALID,19.0166,VALID,39,VALID,0.595084,
2007-11-07, 01:43:00,VALID,915.869,VALID,0,VALID,100,VALID,-0.0849042,VALID,18.9744,VALID,17,VALID,0.686738,
2007-11-07, 01:44:00,VALID,915.883,VALID,0,VALID,100,VALID,-0.0509425,VALID,18.9452,VALID,17,VALID,0.401228,
2007-11-07, 01:45:00,VALID,915.883,VALID,0,VALID,100,VALID,-0.0849042,VALID,18.9454,VALID,17,VALID,0.0225694,
2007-11-07, 01:46:00,VALID,915.879,VALID,0,VALID,100,VALID,-0.0679233,VALID,18.9549,VALID,1,VALID,0.224848,
2007-11-07, 01:47:00,VALID,915.875,VALID,0,VALID,100,VALID,-0.0679233,VALID,18.9519,VALID,355,VALID,0.0482337,
2007-11-07, 01:48:00,VALID,915.855,VALID,0,VALID,100,VALID,-0.0679233,VALID,18.9452,VALID,355,VALID,0,
2007-11-07, 01:49:00,VALID,915.848,VALID,0,VALID,100,VALID,-0.0509425,VALID,18.9579,VALID,355,VALID,0,
2007-11-07, 01:50:00,VALID,915.831,VALID,0,VALID,100,VALID,0,VALID,18.9644,VALID,355,VALID,0.0600694,
2007-11-07, 01:51:00,VALID,915.82,VALID,0,VALID,100,VALID,-0.0169808,VALID,18.9517,VALID,355,VALID,0.00319602,
2007-11-07, 01:52:00,VALID,915.818,VALID,0,VALID,100,VALID,-0.0169808,VALID,18.9318,VALID,355,VALID,0.012173,
2007-11-07, 01:53:00,VALID,915.808,VALID,0,VALID,100,VALID,-0.0679233,VALID,18.9387,VALID,355,VALID,0.199591,
2007-11-07, 01:54:00,VALID,915.8,VALID,0,VALID,100,VALID,-0.0339617,VALID,18.9257,VALID,355,VALID,0.137835,
2007-11-07, 01:55:00,VALID,915.787,VALID,0,VALID,100,VALID,-0.0509425,VALID,18.9355,VALID,355,VALID,0.00962936,
2007-11-07, 01:56:00,VALID,915.777,VALID,0,VALID,100,VALID,-0.0339617,VALID,18.9385,VALID,356,VALID,0,
2007-11-07, 01:57:00,VALID,915.763,VALID,0,VALID,100,VALID,-0.0509425,VALID,18.9385,VALID,356,VALID,0,
2007-11-07, 01:58:00,VALID,915.756,VALID,0,VALID,100,VALID,-0.0849042,VALID,18.9614,VALID,356,VALID,0,
2007-11-07, 01:59:00,VALID,915.742,VALID,0,VALID,100,VALID,-0.0509425,VALID,18.9712,VALID,356,VALID,0,
2007-11-07, 02:00:00,VALID,915.718,VALID,0,VALID,100,VALID,-0.0509425,VALID,18.9742,VALID,356,VALID,0,
2007-11-07, 02:01:00,VALID,915.705,VALID,0,VALID,100,VALID,-0.0679233,VALID,18.9969,VALID,356,VALID,0,
2007-11-07, 02:02:00,VALID,915.686,VALID,0,VALID,100,VALID,-0.0339617,VALID,18.9874,VALID,356,VALID,0.000558036,
2007-11-07, 02:03:00,VALID,915.677,VALID,0,VALID,100,VALID,-0.0169808,VALID,18.9841,VALID,356,VALID,0.0446429,
2007-11-07, 02:04:00,VALID,915.654,VALID,0,VALID,100,VALID,-0.0509425,VALID,18.9874,VALID,356,VALID,0,
2007-11-07, 02:05:00,VALID,915.643,VALID,0,VALID,100,VALID,-0.0169808,VALID,19.0231,VALID,356,VALID,0,
2007-11-07, 02:06:00,VALID,915.615,VALID,0,VALID,100,VALID,-0.0509425,VALID,19.0518,VALID,356,VALID,0,
2007-11-07, 02:07:00,VALID,915.592,VALID,0,VALID,100,VALID,-0.0169808,VALID,19.0557,VALID,357,VALID,0,
2007-11-07, 02:08:00,VALID,915.557,VALID,0,VALID,100,VALID,-0.0679233,VALID,19.0358,VALID,21,VALID,0.199886,
2007-11-07, 02:09:00,VALID,915.544,VALID,0,VALID,100,VALID,-0.0169808,VALID,19.0001,VALID,43,VALID,0.223438,
2007-11-07, 02:10:00,VALID,915.531,VALID,0,VALID,100,VALID,-0.0509425,VALID,19.0001,VALID,43,VALID,0.0418527,
2007-11-07, 02:11:00,VALID,915.501,VALID,0,VALID,100,VALID,-0.0339617,VALID,19.0198,VALID,43,VALID,0,
2007-11-07, 02:12:00,VALID,915.478,VALID,0,VALID,100,VALID,-0.118866,VALID,19.0405,VALID,43,VALID,0,
2007-11-07, 02:13:00,VALID,915.458,VALID,0,VALID,100,VALID,-0.169808,VALID,19.031,VALID,43,VALID,0.0246094,
2007-11-07, 02:14:00,VALID,915.442,VALID,0,VALID,100,VALID,-0.152827,VALID,19.031,VALID,43,VALID,0.0579579,
2007-11-07, 02:15:00,VALID,915.419,VALID,0,VALID,100,VALID,-0.118866,VALID,19.0372,VALID,43,VALID,0.44809,
2007-11-07, 02:16:00,VALID,915.406,VALID,0,VALID,100,VALID,-0.135847,VALID,19.0342,VALID,45,VALID,0.487464,
2007-11-07, 02:17:00,VALID,915.401,VALID,0,VALID,100,VALID,-0.118866,VALID,19.0472,VALID,56,VALID,0.367914,
2007-11-07, 02:18:00,VALID,915.379,VALID,0,VALID,100,VALID,-0.135847,VALID,19.0372,VALID,56,VALID,0.29306,
2007-11-07, 02:19:00,VALID,915.366,VALID,0,VALID,100,VALID,-0.101885,VALID,19.0569,VALID,56,VALID,0.0820313,
2007-11-07, 02:20:00,VALID,915.366,VALID,0,VALID,100,VALID,-0.118866,VALID,19.0602,VALID,56,VALID,0,
2007-11-07, 02:21:00,VALID,915.342,VALID,0,VALID,100,VALID,-0.152827,VALID,19.0539,VALID,56,VALID,0.103016,
2007-11-07, 02:22:00,VALID,915.319,VALID,0,VALID,100,VALID,-0.135847,VALID,19.0505,VALID,56,VALID,0.229833,
2007-11-07, 02:23:00,VALID,915.302,VALID,0,VALID,100,VALID,-0.20377,VALID,19.0507,VALID,60,VALID,0.34282,
2007-11-07, 02:24:00,VALID,915.278,VALID,0,VALID,100,VALID,-0.20377,VALID,19.018,VALID,81,VALID,0.608854,
2007-11-07, 02:25:00,VALID,915.26,VALID,0,VALID,100,VALID,-0.20377,VALID,18.9886,VALID,81,VALID,0.316051,
2007-11-07, 02:26:00,VALID,915.244,VALID,0,VALID,100,VALID,-0.186789,VALID,18.9986,VALID,81,VALID,0.0617898,
2007-11-07, 02:27:00,VALID,915.223,VALID,0,VALID,100,VALID,-4.62593e-018,VALID,19.0064,VALID,81,VALID,0.0078125,
2007-11-07, 02:28:00,VALID,915.202,VALID,0,VALID,100,VALID,0.0509425,VALID,19.0216,VALID,81,VALID,0.175595,
2007-11-07, 02:29:00,VALID,915.178,VALID,0,VALID,100,VALID,0.0509425,VALID,19.0184,VALID,81,VALID,0.0472656,
2007-11-07, 02:30:00,VALID,915.179,VALID,0,VALID,100,VALID,0.0509425,VALID,19.0251,VALID,81,VALID,0,
2007-11-07, 02:31:00,VALID,915.17,VALID,0,VALID,100,VALID,0.0509425,VALID,19.0184,VALID,81,VALID,0,
2007-11-07, 02:32:00,VALID,915.157,VALID,0,VALID,100,VALID,0.0509425,VALID,19.0089,VALID,81,VALID,0,
2007-11-07, 02:33:00,VALID,915.141,VALID,0,VALID,100,VALID,0.0679233,VALID,19.0022,VALID,81,VALID,0,
2007-11-07, 02:34:00,VALID,915.125,VALID,0,VALID,100,VALID,0.0169808,VALID,18.9859,VALID,78,VALID,0.0479651,
2007-11-07, 02:35:00,VALID,915.104,VALID,0,VALID,100,VALID,0.0339617,VALID,18.9567,VALID,46,VALID,0.340661,
2007-11-07, 02:36:00,VALID,915.093,VALID,0,VALID,100,VALID,0,VALID,18.9503,VALID,44,VALID,0.103161,
2007-11-07, 02:37:00,VALID,915.093,VALID,0,VALID,100,VALID,0.0169808,VALID,18.9734,VALID,44,VALID,0,
2007-11-07, 02:38:00,VALID,915.083,VALID,0,VALID,100,VALID,0.0509425,VALID,18.96,VALID,44,VALID,0.0287064,
2007-11-07, 02:39:00,VALID,915.074,VALID,0,VALID,100,VALID,0.0169808,VALID,18.9635,VALID,44,VALID,0,
2007-11-07, 02:40:00,VALID,915.064,VALID,0,VALID,100,VALID,0.0509425,VALID,18.96,VALID,44,VALID,0,
2007-11-07, 02:41:00,VALID,915.063,VALID,0,VALID,100,VALID,0.0169808,VALID,18.9637,VALID,44,VALID,0.037064,
2007-11-07, 02:42:00,VALID,915.046,VALID,0,VALID,100,VALID,0.0339617,VALID,18.9605,VALID,44,VALID,0.302269,
2007-11-07, 02:43:00,VALID,915.032,VALID,0,VALID,100,VALID,0,VALID,18.9739,VALID,65,VALID,0.794727,
2007-11-07, 02:44:00,VALID,915.026,VALID,0,VALID,100,VALID,-0.0169808,VALID,18.9837,VALID,68,VALID,0.85597,
2007-11-07, 02:45:00,VALID,915.027,VALID,0,VALID,100,VALID,0,VALID,19.0036,VALID,68,VALID,0.792225,
2007-11-07, 02:46:00,VALID,915.033,VALID,0,VALID,100,VALID,0.0339617,VALID,19.0094,VALID,71,VALID,0.903832,
2007-11-07, 02:47:00,VALID,915.032,VALID,0,VALID,100,VALID,0,VALID,18.9936,VALID,64,VALID,0.927326,
2007-11-07, 02:48:00,VALID,915.043,VALID,0,VALID,100,VALID,0,VALID,18.9769,VALID,46,VALID,0.757086,
2007-11-07, 02:49:00,VALID,915.042,VALID,0,VALID,100,VALID,0,VALID,18.9806,VALID,52,VALID,0.961119,
2007-11-07, 02:50:00,VALID,915.051,VALID,0,VALID,100,VALID,-0.0169808,VALID,18.9452,VALID,57,VALID,1.07347,
2007-11-07, 02:51:00,VALID,915.071,VALID,0,VALID,100,VALID,0.0169808,VALID,18.9385,VALID,57,VALID,0.62686,
2007-11-07, 02:52:00,VALID,915.065,VALID,0,VALID,100,VALID,0,VALID,18.9744,VALID,54,VALID,0.590199,
2007-11-07, 02:53:00,VALID,915.081,VALID,0,VALID,100,VALID,0,VALID,18.9869,VALID,48,VALID,0.746366,
2007-11-07, 02:54:00,VALID,915.076,VALID,0,VALID,100,VALID,0,VALID,18.9806,VALID,58,VALID,0.958394,
2007-11-07, 02:55:00,VALID,915.074,VALID,0,VALID,100,VALID,-0.0169808,VALID,18.9709,VALID,68,VALID,1.19941,
2007-11-07, 02:56:00,VALID,915.072,VALID,0,VALID,100,VALID,0.0339617,VALID,18.9507,VALID,68,VALID,1.14329,
2007-11-07, 02:57:00,VALID,915.075,VALID,0,VALID,100,VALID,0,VALID,18.9707,VALID,52,VALID,0.867535,
2007-11-07, 02:58:00,VALID,915.077,VALID,0,VALID,100,VALID,0.0169808,VALID,18.9677,VALID,50,VALID,0.966667,
2007-11-07, 02:59:00,VALID,915.067,VALID,0,VALID,100,VALID,-0.0169808,VALID,18.9515,VALID,46,VALID,0.681212,
2007-11-07, 03:00:00,VALID,915.061,VALID,0,VALID,100,VALID,0,VALID,18.9512,VALID,31,VALID,0.323946,
2007-11-07, 03:01:00,VALID,915.056,VALID,0,VALID,100,VALID,0.0339617,VALID,18.9769,VALID,59,VALID,0.606286,
2007-11-07, 03:02:00,VALID,915.03,VALID,0,VALID,100,VALID,0.0169808,VALID,18.9862,VALID,57,VALID,0.816797,
2007-11-07, 03:03:00,VALID,915.024,VALID,0,VALID,100,VALID,0,VALID,19.0056,VALID,54,VALID,0.740282,
2007-11-07, 03:04:00,VALID,914.994,VALID,0,VALID,100,VALID,0,VALID,19.0098,VALID,49,VALID,0.807355,
2007-11-07, 03:05:00,VALID,914.998,VALID,0,VALID,100,VALID,0.0169808,VALID,19.0163,VALID,57,VALID,0.884233,
2007-11-07, 03:06:00,VALID,914.993,VALID,0,VALID,100,VALID,-0.0169808,VALID,19.0031,VALID,41,VALID,0.916319,
2007-11-07, 03:07:00,VALID,914.988,VALID,0,VALID,100,VALID,0.0169808,VALID,18.9906,VALID,49,VALID,0.807664,
2007-11-07, 03:08:00,VALID,914.978,VALID,0,VALID,100,VALID,0,VALID,18.9901,VALID,73,VALID,1.00418,
2007-11-07, 03:09:00,VALID,914.974,VALID,0,VALID,100,VALID,-0.0339617,VALID,18.9899,VALID,61,VALID,0.789789,
2007-11-07, 03:10:00,VALID,914.964,VALID,0,VALID,100,VALID,0,VALID,18.9996,VALID,58,VALID,1.10156,
2007-11-07, 03:11:00,VALID,914.938,VALID,0,VALID,100,VALID,0.0169808,VALID,18.9827,VALID,63,VALID,0.990625,
2007-11-07, 03:12:00,VALID,914.915,VALID,0,VALID,100,VALID,0,VALID,18.9899,VALID,70,VALID,1.10751,
2007-11-07, 03:13:00,VALID,914.903,VALID,0,VALID,100,VALID,0,VALID,19.0031,VALID,62,VALID,1.25434,
2007-11-07, 03:14:00,VALID,914.885,VALID,0,VALID,100,VALID,0.0169808,VALID,18.9734,VALID,53,VALID,1.38796,
2007-11-07, 03:15:00,VALID,914.865,VALID,0,VALID,100,VALID,0.0169808,VALID,18.9802,VALID,48,VALID,1.17315,
2007-11-07, 03:16:00,VALID,914.854,VALID,0,VALID,100,VALID,0,VALID,18.9901,VALID,48,VALID,0.981712,
2007-11-07, 03:17:00,VALID,914.842,VALID,0,VALID,100,VALID,0.0339617,VALID,18.9737,VALID,50,VALID,1.10472,
2007-11-07, 03:18:00,VALID,914.845,VALID,0,VALID,100,VALID,-0.0169808,VALID,18.9737,VALID,73,VALID,1.66621,
2007-11-07, 03:19:00,VALID,914.865,VALID,0,VALID,100,VALID,0.0509425,VALID,18.9672,VALID,63,VALID,1.30254,
2007-11-07, 03:20:00,VALID,914.885,VALID,0,VALID,100,VALID,0.0169808,VALID,18.9804,VALID,60,VALID,0.926258,
2007-11-07, 03:21:00,VALID,914.903,VALID,0,VALID,100,VALID,0.0339617,VALID,18.9804,VALID,72,VALID,0.976563,
2007-11-07, 03:22:00,VALID,914.891,VALID,0,VALID,100,VALID,0.0169808,VALID,19.0034,VALID,71,VALID,0.613758,
2007-11-07, 03:23:00,VALID,914.893,VALID,0,VALID,100,VALID,-0.0169808,VALID,19.0159,VALID,61,VALID,0.61471,
2007-11-07, 03:24:00,VALID,914.898,VALID,0,VALID,100,VALID,-0.0169808,VALID,19.0098,VALID,43,VALID,0.351563,
2007-11-07, 03:25:00,VALID,914.898,VALID,0,VALID,100,VALID,-0.0169808,VALID,19.0101,VALID,52,VALID,0.895349,
2007-11-07, 03:26:00,VALID,914.885,VALID,0,VALID,100,VALID,-0.0169808,VALID,18.9901,VALID,56,VALID,1.05215,
2007-11-07, 03:27:00,VALID,914.883,VALID,0,VALID,100,VALID,-0.0679233,VALID,18.9913,VALID,63,VALID,0.984738,
2007-11-07, 03:28:00,VALID,914.878,VALID,0,VALID,100,VALID,-0.101885,VALID,18.9883,VALID,52,VALID,1.06455,
2007-11-07, 03:29:00,VALID,914.846,VALID,0,VALID,100,VALID,-0.152827,VALID,18.9691,VALID,75,VALID,1.06759,
2007-11-07, 03:30:00,VALID,914.846,VALID,0,VALID,100,VALID,-0.101885,VALID,18.9821,VALID,78,VALID,1.17315,
2007-11-07, 03:31:00,VALID,914.832,VALID,0,VALID,100,VALID,-0.118866,VALID,19.0018,VALID,52,VALID,0.920015,
2007-11-07, 03:32:00,VALID,914.836,VALID,0,VALID,100,VALID,-0.118866,VALID,18.9786,VALID,52,VALID,1.25577,
2007-11-07, 03:33:00,VALID,914.843,VALID,0,VALID,100,VALID,-0.118866,VALID,18.9819,VALID,57,VALID,0.974787,
2007-11-07, 03:34:00,VALID,914.838,VALID,0,VALID,100,VALID,-0.101885,VALID,19.0046,VALID,68,VALID,0.611073,
2007-11-07, 03:35:00,VALID,914.839,VALID,0,VALID,100,VALID,-0.101885,VALID,19.0138,VALID,71,VALID,0.814453,
2007-11-07, 03:36:00,VALID,914.851,VALID,0,VALID,100,VALID,-0.118866,VALID,19.0303,VALID,68,VALID,0.171342,
2007-11-07, 03:37:00,VALID,914.853,VALID,0,VALID,100,VALID,-0.118866,VALID,19.0627,VALID,68,VALID,0,
2007-11-07, 03:38:00,VALID,914.86,VALID,0,VALID,100,VALID,-0.118866,VALID,19.0727,VALID,68,VALID,0,
2007-11-07, 03:39:00,VALID,914.864,VALID,0,VALID,100,VALID,-0.135847,VALID,19.0792,VALID,68,VALID,0,
2007-11-07, 03:40:00,VALID,914.852,VALID,0,VALID,100,VALID,-0.118866,VALID,19.0729,VALID,68,VALID,0,